Thedford, NE

1:49 PM CST on February 14, 2016 (GMT -0600)
Thedford

Weather History for KTIF - March, 2013

Change the Weather History Date:

Sunday, March 17, 2013

  Actual Average (KLBF) Record (KLBF)
Temperature  
Mean Temperature 34 °F 38 °F  
Max Temperature 42 °F 53 °F 82 °F (2012)
Min Temperature 27 °F 24 °F -8 °F (1906)
Degree Days  
Heating Degree Days 31 27  
Month to date heating degree days 495  
Since 1 July heating degree days 5523  
Cooling Degree Days 0 0  
Month to date cooling degree days 0  
Year to date cooling degree days 0  
Moisture  
Dew Point 27 °F    
Average Humidity 81    
Maximum Humidity 91    
Minimum Humidity 60    
Precipitation  
Precipitation 0.00 in 0.03 in 0.76 in (2003)
Month to date precipitation 0.50  
Year to date precipitation 1.34  
Snow  
Snow 0.00 in 0.10 in 5.40 in (2008)
Month to date snowfall 2.5  
Since 1 July snowfall 23.4  
Snow Depth -    
Sea Level Pressure  
Sea Level Pressure 29.76 in    
Wind  
Wind Speed 14 mph (SSE)    
Max Wind Speed 30 mph    
Max Gust Speed 37 mph    
Visibility 8 miles    
Events Snow , Thunderstorm    
T = Trace of Precipitation, MM = Missing Value Source: NWS Daily Summary

Daily Weather History Graph

Daily Weather History Graph

Search for Another Location

Airport or City:

Trip Planner

Search our weather history database for the weather conditions in past years. The results will help you decide how hot, cold, wet, or windy it might be!

Date:

Astronomy

Mar. 17, 2013 Rise Set
Actual Time 7:50 AM CDT 7:51 PM CDT
Civil Twilight 7:22 AM CDT 8:19 PM CDT
Nautical Twilight 6:49 AM CDT 8:51 PM CDT
Astronomical Twilight 6:16 AM CDT 9:24 PM CDT
Moon 10:59 AM CDT (3/17) 1:06 AM CDT (3/17)
Length of Visible Light 12h 56m
Length of Day
12h 01m
Waxing Crescent, 31% of the Moon is Illuminated
Mar 17
Waxing Crescent
Mar 19
First Quarter
Mar 27
Full
Apr 2
Last Quarter
Apr 10
New

Hourly Weather History & Observations

Time (CDT) Temp. Windchill Dew Point Humidity Pressure Visibility Wind Dir Wind Speed Gust Speed Precip Events Conditions
12:15 AM 31.1 °F 23.7 °F 18.7 °F 60% 30.03 in 10.0 mi East 8.1 mph - N/A   Overcast
12:35 AM 29.5 °F 20.4 °F 20.1 °F 68% 30.02 in 2.5 mi East 10.4 mph - N/A Snow Light Snow
12:55 AM 27.9 °F 18.4 °F 21.9 °F 78% 30.01 in 7.0 mi East 10.4 mph - N/A Snow Light Snow
1:15 AM 27.5 °F 18.6 °F 21.9 °F 80% 30.00 in 10.0 mi East 9.2 mph - N/A Snow Light Snow
1:35 AM 27.0 °F 18.0 °F 21.2 °F 79% 29.99 in 10.0 mi East 9.2 mph - N/A   Mostly Cloudy
1:55 AM 27.5 °F 17.4 °F 21.2 °F 77% 29.97 in 10.0 mi ESE 11.5 mph - N/A Snow Light Snow
2:15 AM 28.0 °F 19.3 °F 21.0 °F 75% 29.97 in 10.0 mi ESE 9.2 mph - N/A   Overcast
2:35 AM 27.9 °F 19.8 °F 21.2 °F 76% 29.96 in 10.0 mi ESE 8.1 mph - N/A   Overcast
2:55 AM 27.5 °F 19.3 °F 21.2 °F 77% 29.96 in 10.0 mi SE 8.1 mph - N/A   Overcast
3:15 AM 27.5 °F 18.0 °F 21.6 °F 78% 29.95 in 10.0 mi SE 10.4 mph - N/A   Overcast
3:35 AM 27.5 °F 17.4 °F 21.9 °F 80% 29.94 in 10.0 mi SE 11.5 mph - N/A   Overcast
3:55 AM 27.5 °F 19.3 °F 22.1 °F 80% 29.93 in 10.0 mi SE 8.1 mph - N/A   Overcast
4:15 AM 27.5 °F 17.4 °F 21.7 °F 79% 29.92 in 10.0 mi SE 11.5 mph - N/A   Overcast
4:55 AM 27.5 °F 17.4 °F 21.9 °F 80% 29.91 in 10.0 mi SE 11.5 mph - N/A   Overcast
5:15 AM 27.5 °F 18.6 °F 21.9 °F 80% 29.91 in 10.0 mi SE 9.2 mph - N/A   Overcast
5:35 AM 27.5 °F 18.6 °F 21.9 °F 80% 29.91 in 10.0 mi SE 9.2 mph - N/A   Overcast
5:55 AM 27.5 °F 18.0 °F 21.7 °F 79% 29.91 in 10.0 mi SE 10.4 mph - N/A   Overcast
6:15 AM 27.3 °F 18.4 °F 22.5 °F 82% 29.91 in 10.0 mi SE 9.2 mph - N/A   Overcast
6:35 AM 27.3 °F 18.4 °F 22.8 °F 83% 29.90 in 7.0 mi SE 9.2 mph - N/A   Overcast
6:55 AM 27.0 °F 18.0 °F 23.0 °F 85% 29.89 in 7.0 mi SE 9.2 mph - N/A   Overcast
7:15 AM 27.3 °F 15.6 °F 23.5 °F 86% 29.88 in 10.0 mi SSE 15.0 mph 18.4 mph N/A   Overcast
7:35 AM 27.1 °F 17.5 °F 24.1 °F 88% 29.87 in 5.0 mi SSE 10.4 mph - N/A   Overcast
7:55 AM 27.0 °F 16.1 °F 24.3 °F 90% 29.87 in 5.0 mi SSE 12.7 mph 17.3 mph N/A   Overcast
8:15 AM 27.1 °F 16.4 °F 24.3 °F 89% 29.86 in 4.0 mi SSE 12.7 mph - N/A   Overcast
8:35 AM 27.1 °F 14.9 °F 24.4 °F 90% 29.85 in 3.0 mi SSE 16.1 mph - N/A   Overcast
8:55 AM 27.3 °F 16.6 °F 24.8 °F 90% 29.85 in 2.0 mi SSE 12.7 mph - N/A   Overcast
9:15 AM 27.5 °F 16.8 °F 25.2 °F 91% 29.84 in 2.5 mi SSE 12.7 mph - N/A   Overcast
9:35 AM 28.0 °F 15.7 °F 25.7 °F 91% 29.83 in 2.5 mi SSE 17.3 mph 20.7 mph N/A   Overcast
9:55 AM 28.4 °F 16.6 °F 25.9 °F 90% 29.81 in 2.0 mi SSE 16.1 mph 19.6 mph N/A   Overcast
10:15 AM 28.4 °F 16.2 °F 26.1 °F 91% 29.80 in 2.5 mi SSE 17.3 mph 23.0 mph N/A   Overcast
10:35 AM 29.3 °F 17.3 °F 26.6 °F 90% 29.80 in 3.0 mi SSE 17.3 mph 20.7 mph N/A   Overcast
10:55 AM 29.8 °F 17.7 °F 27.3 °F 90% 29.79 in 2.0 mi SSE 18.4 mph 24.2 mph N/A   Overcast
11:15 AM 29.8 °F 17.7 °F 27.3 °F 90% 29.78 in 2.5 mi SSE 18.4 mph 25.3 mph N/A   Overcast
11:35 AM 30.4 °F 19.5 °F 27.7 °F 90% 29.76 in 3.0 mi South 15.0 mph 23.0 mph N/A   Overcast
11:55 AM 30.9 °F 19.1 °F 28.0 °F 89% 29.76 in 2.5 mi SSE 18.4 mph 23.0 mph N/A   Overcast
12:15 PM 30.9 °F 18.4 °F 28.0 °F 89% 29.74 in 2.5 mi SSE 20.7 mph 25.3 mph N/A   Overcast
12:35 PM 31.5 °F 19.8 °F 28.2 °F 88% 29.73 in 5.0 mi South 18.4 mph 25.3 mph N/A   Overcast
12:55 PM 32.0 °F 19.5 °F 28.0 °F 85% 29.71 in 10.0 mi SSE 21.9 mph 29.9 mph N/A   Overcast
1:15 PM 31.8 °F 18.7 °F 27.7 °F 85% 29.69 in 7.0 mi South 24.2 mph 29.9 mph N/A   Overcast
1:35 PM 32.0 °F 19.5 °F 28.4 °F 87% 29.68 in 7.0 mi South 21.9 mph 31.1 mph N/A   Overcast
1:55 PM 33.1 °F 20.6 °F 29.1 °F 85% 29.66 in 10.0 mi South 23.0 mph 32.2 mph N/A   Overcast
2:15 PM 34.5 °F 21.8 °F 28.8 °F 79% 29.65 in 10.0 mi South 26.5 mph 35.7 mph N/A   Overcast
2:35 PM 34.9 °F 24.2 °F 29.1 °F 79% 29.66 in 10.0 mi South 18.4 mph 32.2 mph N/A   Overcast
2:55 PM 35.1 °F 23.5 °F 29.3 °F 80% 29.65 in 10.0 mi South 21.9 mph 27.6 mph N/A   Overcast
3:15 PM 35.2 °F 24.1 °F 29.5 °F 80% 29.65 in 10.0 mi South 20.7 mph 31.1 mph N/A   Overcast
3:35 PM 35.2 °F 23.5 °F 30.0 °F 81% 29.60 in 5.0 mi South 23.0 mph 28.8 mph N/A Snow Light Snow
3:55 PM 35.4 °F 24.3 °F 30.2 °F 81% 29.59 in 10.0 mi South 20.7 mph 29.9 mph N/A   Overcast
4:15 PM 35.8 °F 24.2 °F 31.1 °F 83% 29.56 in 10.0 mi SSE 23.0 mph 29.9 mph N/A Thunderstorm Overcast
4:35 PM 36.0 °F 23.0 °F 31.1 °F 82% 29.54 in 10.0 mi SSE 29.9 mph 33.4 mph N/A   Overcast
4:55 PM 36.5 °F 24.7 °F 31.1 °F 81% 29.54 in 10.0 mi SSE 25.3 mph 33.4 mph N/A   Overcast
5:15 PM 35.8 °F 23.9 °F 30.7 °F 82% 29.54 in 10.0 mi SSE 24.2 mph 32.2 mph N/A   Mostly Cloudy
5:35 PM 35.6 °F 23.7 °F 30.7 °F 82% 29.54 in 10.0 mi South 24.2 mph 31.1 mph N/A   Scattered Clouds
5:55 PM 35.6 °F 23.4 °F 30.7 °F 82% 29.54 in 10.0 mi South 25.3 mph 32.2 mph N/A   Scattered Clouds
6:15 PM 36.3 °F 23.9 °F 31.3 °F 82% 29.53 in 10.0 mi South 27.6 mph 34.5 mph N/A   Scattered Clouds
6:35 PM 37.6 °F 25.9 °F 31.3 °F 78% 29.55 in 10.0 mi South 26.5 mph 32.2 mph N/A   Clear
6:55 PM 36.5 °F 25.2 °F 31.1 °F 81% 29.55 in 7.0 mi South 23.0 mph 28.8 mph N/A   Scattered Clouds
7:15 PM 36.5 °F 24.9 °F 31.1 °F 81% 29.55 in 7.0 mi South 24.2 mph - N/A   Mostly Cloudy
7:35 PM 36.1 °F 25.5 °F 31.1 °F 82% 29.55 in 7.0 mi South 19.6 mph 27.6 mph N/A   Overcast
7:55 PM 36.5 °F 25.7 °F 31.1 °F 81% 29.55 in 7.0 mi South 20.7 mph 27.6 mph N/A   Scattered Clouds
8:15 PM 36.5 °F 26.0 °F 31.1 °F 81% 29.56 in 10.0 mi South 19.6 mph 25.3 mph N/A   Scattered Clouds
8:35 PM 36.5 °F 26.3 °F 31.1 °F 81% 29.56 in 10.0 mi South 18.4 mph - N/A   Scattered Clouds
8:55 PM 36.5 °F 27.0 °F 31.8 °F 83% 29.55 in 10.0 mi South 16.1 mph 20.7 mph N/A   Clear
9:15 PM 37.0 °F 28.1 °F 32.0 °F 82% 29.58 in 10.0 mi SSW 15.0 mph 20.7 mph N/A   Clear
9:35 PM 39.6 °F 33.0 °F 32.0 °F 74% 29.62 in 10.0 mi WSW 10.4 mph - N/A   Scattered Clouds
9:55 PM 41.9 °F 31.3 °F 32.4 °F 69% 29.65 in 10.0 mi NNW 28.8 mph 35.7 mph N/A   Overcast
10:15 PM 38.5 °F 27.5 °F 30.4 °F 73% 29.68 in 10.0 mi NNW 24.2 mph 33.4 mph N/A   Overcast
10:35 PM 36.0 °F 23.9 °F 27.5 °F 71% 29.69 in 10.0 mi NNW 25.3 mph 32.2 mph N/A   Overcast
10:55 PM 34.7 °F 23.7 °F 26.4 °F 72% 29.71 in 10.0 mi NW 19.6 mph 28.8 mph N/A   Overcast
11:15 PM 34.3 °F 23.2 °F 26.1 °F 72% 29.72 in 10.0 mi NW 19.6 mph 28.8 mph N/A   Mostly Cloudy
11:35 PM 34.3 °F 23.2 °F 25.7 °F 71% 29.73 in 10.0 mi NW 19.6 mph - N/A   Overcast
11:55 PM 34.7 °F 22.5 °F 24.6 °F 67% 29.73 in 10.0 mi NW 24.2 mph 36.8 mph N/A   Overcast